Weather History for Camarillo, CA

Change the Weather History Date:

Tuesday, November 15, 2011

  Actual Average Record
Temperature  
Mean Temperature 59 °F 59 °F  
Max Temperature 66 °F 71 °F 90 °F (2008)
Min Temperature 51 °F 47 °F 33 °F (1964)
Degree Days  
Heating Degree Days 6 7  
Month to date heating degree days 85 85  
Since 1 July heating degree days 123 208  
Cooling Degree Days 0 0  
Month to date cooling degree days 15 13  
Year to date cooling degree days 492 329  
Growing Degree Days 9 (Base 50)    
Moisture  
Dew Point 51 °F    
Average Humidity 72    
Maximum Humidity 86    
Minimum Humidity 58    
Precipitation  
Precipitation 0.00 in 0.05 in 1.14 in (1952)
Month to date precipitation 0.91 0.73  
Year to date precipitation 12.12 12.58  
Since 1 July precipitation 1.89 1.60  
Sea Level Pressure  
Sea Level Pressure 30.06 in    
Wind  
Wind Speed 3 mph (WSW)    
Max Wind Speed 12 mph    
Max Gust Speed 14 mph    
Visibility 8 miles    
Events      
T = Trace of Precipitation, MM = Missing Value Source: NWS Daily Summary

Daily Weather History Graph

Daily Weather History Graph

Search for Another Location

Airport:

Trip Planner

Search our weather history database for the weather conditions in past years. The results will help you decide how hot, cold, wet, or windy it might be!

Date:

Astronomy

Nov. 15, 2011 Rise Set
Actual Time 6:29 AM PST 4:52 PM PST
Civil Twilight 6:02 AM PST 5:19 PM PST
Nautical Twilight 5:32 AM PST 5:49 PM PST
Astronomical Twilight 5:02 AM PST 6:19 PM PST
Moon 9:07 PM PST (11/15) 10:30 AM PST (11/15)
Length of Visible Light 11h 16m
Length of Day
10h 23m
Waning Gibbous, 78% of the Moon is Illuminated
Nov 15
Waning Gibbous
Nov 18
Last Quarter
Nov 24
New
Dec 2
First Quarter
Dec 10
Full

Hourly Weather History & Observations

Time (PST) Temp. Dew Point Humidity Pressure Visibility Wind Dir Wind Speed Gust Speed Precip Events Conditions
12:55 AM 54.0 °F 48.9 °F 83% 30.05 in 8.0 mi Calm Calm - N/A   Overcast
1:55 AM 55.9 °F 50.0 °F 80% 30.05 in 9.0 mi NE 3.5 mph - N/A   Overcast
2:55 AM 55.9 °F 50.0 °F 80% 30.06 in 9.0 mi Calm Calm - N/A   Overcast
3:55 AM 57.0 °F 51.1 °F 81% 30.06 in 9.0 mi Calm Calm - N/A   Overcast
7:55 AM 60.1 °F 53.1 °F 78% 30.11 in 6.0 mi Calm Calm - N/A   Haze
8:55 AM 61.0 °F 53.1 °F 75% 30.11 in 6.0 mi Calm Calm - N/A   Haze
9:55 AM 63.0 °F 50.0 °F 63% 30.12 in 9.0 mi Calm Calm - N/A   Overcast
11:55 AM 64.0 °F 53.1 °F 67% 30.08 in 9.0 mi West 9.2 mph - N/A   Overcast
12:55 PM 64.0 °F 52.0 °F 65% 30.06 in 10.0 mi WSW 6.9 mph - N/A   Overcast
1:55 PM 66.0 °F 51.1 °F 59% 30.04 in 10.0 mi West 10.4 mph - N/A   Mostly Cloudy
2:02 PM 64.4 °F 51.8 °F 64% 30.01 in 10.0 mi SW 9.2 mph - N/A   Partly Cloudy
2:55 PM 64.9 °F 52.0 °F 63% 30.04 in 10.0 mi West 8.1 mph - N/A   Clear
3:55 PM 64.0 °F 53.1 °F 67% 30.03 in 10.0 mi SW 3.5 mph - N/A   Clear
4:55 PM 61.0 °F 54.0 °F 78% 30.04 in 7.0 mi SSW 4.6 mph - N/A   Clear
5:55 PM 59.0 °F 53.1 °F 81% 30.05 in 7.0 mi Calm Calm - N/A   Clear
6:55 PM 55.9 °F 51.1 °F 84% 30.06 in 5.0 mi ENE 3.5 mph - N/A   Haze
7:55 PM 55.9 °F 51.1 °F 84% 30.06 in 5.0 mi Calm Calm - N/A   Haze
8:55 PM 55.0 °F 50.0 °F 83% 30.08 in 5.0 mi Calm Calm - N/A   Haze
10:25 PM 53.6 °F 48.2 °F 82% 30.06 in 4.0 mi Calm Calm - N/A   Haze
10:55 PM 52.0 °F 46.9 °F 83% 30.09 in 5.0 mi ENE 3.5 mph - N/A   Haze
11:55 PM 52.0 °F 48.0 °F 86% 30.10 in 5.0 mi NE 3.5 mph - N/A   Scattered Clouds